Location: Firdgum
(53.2488°N, 5.5615°E)
Time: 17:12:42
(UTC+00:00)

Cosmos 1066 Rocket - Pass Details

Date: 08 December 2019
Orbit: 798 x 895 km, 81.2° (Epoch: 20 January)

Event Time Altitude Azimuth Distance (km) Brightness Sun altitude
Rises 06:49:12 0° 345° (NNW) 3,461 7.0 -6.9°
Reaches altitude 10° 06:51:40 10° 345° (NNW) 2,505 6.3 -6.6°
Maximum altitude 06:57:20 80° 260° (W) 860 4.2 -5.9°
Drops below altitude 10° 07:02:50 10° 174° (S) 2,422 7.2 -5.2°
Sets 07:05:11 0° 173° (S) 3,337 7.9 -4.9°
